COSMOS 762

Satellite information

Favourite Embed

Satellite Type and Status

PAYLOADIN ORBIT

Key statistics

Satellite COSMOS 762 at a glance.

Uptime

18306

Days in orbit

Revolutions

≈ 12.5

Per day

Orbit

LEO

Low Earth Orbit

Inclination

74.0

Latest

Satellite identification and parameters

Extended collection of information and parameters for COSMOS 762.

Object identification

Identified? True

Debris? False

Object name: COSMOS 762

International designator: 1975-086B

Object number (NORAD): 8286

Object ID (CCSDS): 8286

Country: COMMONWEALTH OF INDEPENDENT STATES (CIS)

Current information (Y/N): Y

RCS size: MEDIUM

Orbital parameters

Period: 115.117 minutes

Inclination: 74.0104 deg

SMA: 7838.864 km

Apoapsis: 1484.192 km

Periapsis: 1437.266 km

RAAN: 202.4417 deg

Eccentricy: 0.00299318

Argument of periapsis: 330.3282 deg

Mean anomaly: 207.0146 deg

Mean motion: 12.50901298 rev/day

Mean motion (dot): -0.00000007 rev/day2

B* drag term: 0.000057766235 1/REarth

Two-line elements (TLE)

Creation date: Oct. 28, 2025, 7:11 p.m.

Reference frame: TEME

Reference center: EARTH

Epoch: Oct. 28, 2025, 12:31 p.m. UTC

TLE line 0: 0 COSMOS 762

TLE line 1: 1 08286U 75086B 25301.52191156 -.00000007 00000-0 57766-4 0 9994

TLE line 2: 2 08286 74.0104 202.4417 0029932 330.3282 207.0146 12.50901298288407

Live tracking on map

Real-time ground track for satellite COSMOS 762.

In-orbit conjunctions

A list of the most updated potential collisions computed for object COSMOS 762.

Target Orbit TCA Probability of collision Miss distance Type
DELTA 1 DEB SSO 2025-10-20 08:19:12 0.000174749 249.0 (m) DEBRIS
BREEZE-M DEB MEO 2024-09-02 17:26:37 0.0001189097 953.0 (m) DEBRIS

Associated space launch

Military communications satellites

COSMOS 762 was lifted into orbit during the mission ‘Kosmos-3M | Strela-1M 97-104’, on board a Kosmos-3M space rocket.

The launch took place on Sept. 17, 1975, 7:10 a.m. from 132/1 (132L).

For more information about the launch, click the button.

Launch to space Kosmos-3M | Strela-1M 97-104
Kosmos-3M | Strela-1M 97-104

Agency: N/A

Status: Launch Successful

Launch date: Sept. 17, 1975, 7:10 a.m. UTC

Rocket: Kosmos-3M

Launch pad: 132/1 (132L)

Location: Plesetsk Cosmodrome, Russian Federation

...

Latest news about this satellite

There are no fresh news available about this satellite. Check back as we update our databases every day.


Newsletter sign-up

Weekly statistics, charts and insights to help you stay on top of the space industry.